Home   Weather   Sheboygan   Past weeks

Flag for USA Past Weather in Sheboygan, Wisconsin, USA — Yesterday and Last 2 Weeks

Now
40 °F

Light rain. Fog.


Feels Like: 35 °F
Forecast: 37 / 42 °F
Wind: 7 mph from Southeast

Location: Sheboygan County Memorial Airport

Current Time: Feb 28, 2017 at 6:47:30 am

Latest Report: Feb 28, 2017 at 6:04 am


Visibility: 2 mi

Pressure: 29.84 "Hg

Humidity: 97%

Dew Point: 39 °F

Location of SheboyganLocation

Past Weather in Sheboygan — Graph

°F

Sheboygan Temperature Yesterday

Maximum temperature yesterday: 38 °F (at 12:53 pm)
Minimum temperature yesterday: 21 °F (at 5:53 am)
Average temperature yesterday: 32 °F

High & Low Weather Summary for the Past Weeks

 TemperatureHumidityPressure
High69 °F (Feb 22, 1:53 pm)100% (Feb 17, 7:53 am)30.28 "Hg (Feb 17, 7:53 am)
Low18 °F (Feb 26, 12:53 am)35% (Feb 21, 3:53 pm)29.50 "Hg (Feb 24, 5:02 pm)
Average36 °F75%29.83 "Hg
* Reported Feb 13 4:53 am — Feb 28 4:53 am, Sheboygan, Weather by CustomWeather, © 2017

Note: Actual official high and low records may vary slightly from our data, if they occured in-between our weather recording intervals... More about our weather records

Advertising

Sheboygan Weather History for the Previous 24 Hours

Scroll right to see more
 ConditionsComfort  
Time TempWeatherWind HumidityBarometerVisibility
4:53 am
Tue, Feb 28
39 °FFog.8 mph93%29.88 "Hg4 mi
4:28 am39 °FLight rain. Fog.8 mph93%29.88 "Hg5 mi
4:06 am39 °FLight rain. Fog.10 mph93%29.89 "Hg4 mi
3:53 am39 °FLight rain. Fog.6 mph93%29.90 "Hg4 mi
2:53 am38 °FOvercast.7 mph90%29.96 "Hg8 mi
1:53 am39 °FMostly cloudy.7 mph82%29.99 "Hg10 mi
12:53 am38 °FPartly cloudy.9 mph86%30.03 "Hg10 mi
11:53 pm
Mon, Feb 27
35 °FOvercast.3 mph88%30.04 "Hg7 mi
10:53 pm31 °FIce fog.No wind96%30.06 "Hg4 mi
10:24 pm32 °FIce fog.No wind88%30.04 "Hg3 mi
10:16 pm32 °FIce fog.No wind88%30.05 "Hg2 mi
9:53 pm32 °FIce fog.No wind92%30.07 "Hg3 mi
8:53 pm32 °FIce fog.No wind92%30.09 "Hg2 mi
8:35 pm31 °FIce fog.No wind92%30.06 "Hg2 mi
8:23 pm30 °FIce fog.No wind96%30.06 "Hg2 mi
7:53 pm33 °FFog.No wind88%30.09 "Hg4 mi
6:53 pm34 °FFog.3 mph88%30.09 "Hg6 mi
5:53 pm37 °FClear.5 mph82%30.08 "Hg8 mi
4:53 pm38 °FSunny.7 mph76%30.09 "Hg10 mi
3:53 pm38 °FSunny.8 mph76%30.09 "Hg10 mi
2:53 pm38 °FOvercast.10 mph76%30.11 "Hg10 mi
1:53 pm37 °FOvercast.8 mph73%30.12 "Hg10 mi
12:53 pm38 °FPassing clouds.14 mph68%30.15 "Hg10 mi
11:53 am37 °FSunny.13 mph65%30.17 "Hg10 mi
10:53 am36 °FSunny.10 mph70%30.16 "Hg10 mi
9:53 am34 °FSunny.12 mph70%30.17 "Hg10 mi
8:53 am30 °FSunny.3 mph82%30.15 "Hg10 mi
7:53 am23 °FSunny.5 mph88%30.16 "Hg10 mi
6:53 am22 °FSunny.6 mph85%30.14 "Hg10 mi
Weather by CustomWeather, © 2017

See weather overviewHow to use our weather pages